<?xml version="1.0" encoding="UTF-8" standalone="no" ?>
<gpx xmlns="http://www.topografix.com/GPX/1/1" xmlns:xsi="http://www.w3.org/2001/XMLSchema-instance" xsi:schemaLocation="http://www.topografix.com/GPX/1/1 http://www.topografix.com/GPX/1/1/gpx.xsd" version="1.1" creator="VisuGPX - https://www.visugpx.com">
  <metadata>
    <name>Randonnée Hauts Plateaux du Vercors (11-06-13)</name>
    <desc><![CDATA[Journée de randonnée équestre dans la réserve naturelle des hauts plateaux du Vercors.
Départ: Tourtres (gîte Dusserre)
Arrivée: Pré Grandu (maison forestière)]]></desc>
  </metadata>
  <trk>
    <name><![CDATA[Rando 2013-06-11]]></name>
    <trkseg>
      <trkpt lat="45.00392" lon="5.44724">
        <ele>707.5</ele>
        <time>2013-03-27T18:05:25Z</time>
      </trkpt>
      <trkpt lat="45.005" lon="5.45098">
        <ele>723.6</ele>
        <time>2013-03-27T18:05:25Z</time>
      </trkpt>
      <trkpt lat="45.00488" lon="5.45143">
        <ele>730</ele>
        <time>2013-03-27T18:05:25Z</time>
      </trkpt>
      <trkpt lat="45.00414" lon="5.45154">
        <ele>722</ele>
        <time>2013-03-27T18:05:25Z</time>
      </trkpt>
      <trkpt lat="45.00334" lon="5.45197">
        <ele>736</ele>
        <time>2013-03-27T18:05:25Z</time>
      </trkpt>
      <trkpt lat="45.00252" lon="5.45601">
        <ele>766.8</ele>
        <time>2013-03-27T18:05:25Z</time>
      </trkpt>
      <trkpt lat="45.00126" lon="5.4577">
        <ele>794.8</ele>
        <time>2013-03-27T18:05:25Z</time>
      </trkpt>
      <trkpt lat="45.00122" lon="5.45922">
        <ele>807.5</ele>
        <time>2013-03-27T18:05:25Z</time>
      </trkpt>
      <trkpt lat="45.00187" lon="5.46093">
        <ele>848.5</ele>
        <time>2013-03-27T18:05:25Z</time>
      </trkpt>
      <trkpt lat="45.00261" lon="5.46089">
        <ele>849.3</ele>
        <time>2013-03-27T18:05:25Z</time>
      </trkpt>
      <trkpt lat="45.00328" lon="5.46165">
        <ele>868.5</ele>
        <time>2013-03-27T18:05:25Z</time>
      </trkpt>
      <trkpt lat="45.00384" lon="5.4617">
        <ele>863.2</ele>
        <time>2013-03-27T18:05:25Z</time>
      </trkpt>
      <trkpt lat="45.00567" lon="5.46326">
        <ele>902.7</ele>
        <time>2013-03-27T18:05:25Z</time>
      </trkpt>
      <trkpt lat="45.00692" lon="5.46376">
        <ele>931.6</ele>
        <time>2013-03-27T18:05:25Z</time>
      </trkpt>
      <trkpt lat="45.00806" lon="5.46389">
        <ele>944.9</ele>
        <time>2013-03-27T18:05:25Z</time>
      </trkpt>
      <trkpt lat="45.00925" lon="5.46435">
        <ele>968.3</ele>
        <time>2013-03-27T18:05:25Z</time>
      </trkpt>
      <trkpt lat="45.01029" lon="5.46458">
        <ele>1004.3</ele>
        <time>2013-03-27T18:05:25Z</time>
      </trkpt>
      <trkpt lat="45.01029" lon="5.46458">
        <ele>1004.3</ele>
        <time>2013-03-27T18:05:25Z</time>
      </trkpt>
      <trkpt lat="45.01077" lon="5.46457">
        <ele>1021.9</ele>
        <time>2013-03-27T18:05:25Z</time>
      </trkpt>
      <trkpt lat="45.01081" lon="5.46479">
        <ele>1022.4</ele>
        <time>2013-03-27T18:05:25Z</time>
      </trkpt>
      <trkpt lat="45.0098" lon="5.46519">
        <ele>1005.4</ele>
        <time>2013-03-27T18:05:25Z</time>
      </trkpt>
      <trkpt lat="45.00803" lon="5.46548">
        <ele>1009.4</ele>
        <time>2013-03-27T18:05:25Z</time>
      </trkpt>
      <trkpt lat="45.00803" lon="5.46548">
        <ele>1009.4</ele>
        <time>2013-03-27T18:05:25Z</time>
      </trkpt>
      <trkpt lat="45.01081" lon="5.46618">
        <ele>1069.9</ele>
        <time>2013-03-27T18:05:25Z</time>
      </trkpt>
      <trkpt lat="45.01374" lon="5.4656">
        <ele>1120.8</ele>
        <time>2013-03-27T18:05:25Z</time>
      </trkpt>
      <trkpt lat="45.01311" lon="5.4664">
        <ele>1122.1</ele>
        <time>2013-03-27T18:05:25Z</time>
      </trkpt>
      <trkpt lat="45.01076" lon="5.46713">
        <ele>1118.6</ele>
        <time>2013-03-27T18:05:25Z</time>
      </trkpt>
      <trkpt lat="45.00998" lon="5.46752">
        <ele>1130.8</ele>
        <time>2013-03-27T18:05:25Z</time>
      </trkpt>
      <trkpt lat="45.00735" lon="5.46781">
        <ele>1143.5</ele>
        <time>2013-03-27T18:05:25Z</time>
      </trkpt>
      <trkpt lat="45.00646" lon="5.46774">
        <ele>1143.3</ele>
        <time>2013-03-27T18:05:25Z</time>
      </trkpt>
      <trkpt lat="45.00583" lon="5.46799">
        <ele>1160.5</ele>
        <time>2013-03-27T18:05:25Z</time>
      </trkpt>
      <trkpt lat="45.0053" lon="5.46781">
        <ele>1152.2</ele>
        <time>2013-03-27T18:05:25Z</time>
      </trkpt>
      <trkpt lat="45.00477" lon="5.46786">
        <ele>1159.5</ele>
        <time>2013-03-27T18:05:25Z</time>
      </trkpt>
      <trkpt lat="45.00352" lon="5.46749">
        <ele>1164.1</ele>
        <time>2013-03-27T18:05:25Z</time>
      </trkpt>
      <trkpt lat="45.00352" lon="5.46749">
        <ele>1164.1</ele>
        <time>2013-03-27T18:05:25Z</time>
      </trkpt>
      <trkpt lat="45.0044" lon="5.46843">
        <ele>1186.6</ele>
        <time>2013-03-27T18:05:25Z</time>
      </trkpt>
      <trkpt lat="45.00492" lon="5.46918">
        <ele>1199.3</ele>
        <time>2013-03-27T18:05:25Z</time>
      </trkpt>
      <trkpt lat="45.00547" lon="5.46945">
        <ele>1206.2</ele>
        <time>2013-03-27T18:05:25Z</time>
      </trkpt>
      <trkpt lat="45.00527" lon="5.46983">
        <ele>1209.6</ele>
        <time>2013-03-27T18:05:25Z</time>
      </trkpt>
      <trkpt lat="45.00483" lon="5.46969">
        <ele>1207.6</ele>
        <time>2013-03-27T18:05:25Z</time>
      </trkpt>
      <trkpt lat="45.00423" lon="5.46912">
        <ele>1200.8</ele>
        <time>2013-03-27T18:05:25Z</time>
      </trkpt>
      <trkpt lat="45.00353" lon="5.46882">
        <ele>1205.6</ele>
        <time>2013-03-27T18:05:25Z</time>
      </trkpt>
      <trkpt lat="45.00301" lon="5.46861">
        <ele>1207.9</ele>
        <time>2013-03-27T18:05:25Z</time>
      </trkpt>
      <trkpt lat="45.00236" lon="5.46932">
        <ele>1229.6</ele>
        <time>2013-03-27T18:05:25Z</time>
      </trkpt>
      <trkpt lat="45.00196" lon="5.46932">
        <ele>1230</ele>
        <time>2013-03-27T18:05:25Z</time>
      </trkpt>
      <trkpt lat="45.00145" lon="5.46872">
        <ele>1219.4</ele>
        <time>2013-03-27T18:05:25Z</time>
      </trkpt>
      <trkpt lat="45.00093" lon="5.46859">
        <ele>1223.6</ele>
        <time>2013-03-27T18:05:25Z</time>
      </trkpt>
      <trkpt lat="45.00042" lon="5.46823">
        <ele>1223.6</ele>
        <time>2013-03-27T18:05:25Z</time>
      </trkpt>
      <trkpt lat="44.99935" lon="5.46832">
        <ele>1237.3</ele>
        <time>2013-03-27T18:05:25Z</time>
      </trkpt>
      <trkpt lat="44.99899" lon="5.46806">
        <ele>1233.3</ele>
        <time>2013-03-27T18:05:25Z</time>
      </trkpt>
      <trkpt lat="44.99825" lon="5.46798">
        <ele>1242.4</ele>
        <time>2013-03-27T18:05:25Z</time>
      </trkpt>
      <trkpt lat="44.9962" lon="5.46636">
        <ele>1239.5</ele>
        <time>2013-03-27T18:05:25Z</time>
      </trkpt>
      <trkpt lat="44.99575" lon="5.4658">
        <ele>1231.9</ele>
        <time>2013-03-27T18:05:25Z</time>
      </trkpt>
      <trkpt lat="44.99517" lon="5.46572">
        <ele>1245.9</ele>
        <time>2013-03-27T18:05:25Z</time>
      </trkpt>
      <trkpt lat="44.99479" lon="5.46535">
        <ele>1242.2</ele>
        <time>2013-03-27T18:05:25Z</time>
      </trkpt>
      <trkpt lat="44.99361" lon="5.46529">
        <ele>1259.9</ele>
        <time>2013-03-27T18:05:25Z</time>
      </trkpt>
      <trkpt lat="44.99337" lon="5.46503">
        <ele>1257.1</ele>
        <time>2013-03-27T18:05:25Z</time>
      </trkpt>
      <trkpt lat="44.99332" lon="5.4644">
        <ele>1243.5</ele>
        <time>2013-03-27T18:05:25Z</time>
      </trkpt>
      <trkpt lat="44.99269" lon="5.46447">
        <ele>1254.8</ele>
        <time>2013-03-27T18:05:25Z</time>
      </trkpt>
      <trkpt lat="44.99216" lon="5.4637">
        <ele>1248.4</ele>
        <time>2013-03-27T18:05:25Z</time>
      </trkpt>
      <trkpt lat="44.99138" lon="5.46323">
        <ele>1250.6</ele>
        <time>2013-03-27T18:05:25Z</time>
      </trkpt>
      <trkpt lat="44.99064" lon="5.46316">
        <ele>1261.7</ele>
        <time>2013-03-27T18:05:25Z</time>
      </trkpt>
      <trkpt lat="44.99021" lon="5.46281">
        <ele>1259.9</ele>
        <time>2013-03-27T18:05:25Z</time>
      </trkpt>
      <trkpt lat="44.98972" lon="5.46266">
        <ele>1263</ele>
        <time>2013-03-27T18:05:25Z</time>
      </trkpt>
      <trkpt lat="44.98946" lon="5.46245">
        <ele>1262.1</ele>
        <time>2013-03-27T18:05:25Z</time>
      </trkpt>
      <trkpt lat="44.98825" lon="5.46283">
        <ele>1281.1</ele>
        <time>2013-03-27T18:05:25Z</time>
      </trkpt>
      <trkpt lat="44.98784" lon="5.46344">
        <ele>1290.3</ele>
        <time>2013-03-27T18:05:25Z</time>
      </trkpt>
      <trkpt lat="44.98747" lon="5.46349">
        <ele>1291.1</ele>
        <time>2013-03-27T18:05:25Z</time>
      </trkpt>
      <trkpt lat="44.98715" lon="5.46406">
        <ele>1302.3</ele>
        <time>2013-03-27T18:05:25Z</time>
      </trkpt>
      <trkpt lat="44.98667" lon="5.46451">
        <ele>1309.9</ele>
        <time>2013-03-27T18:05:25Z</time>
      </trkpt>
      <trkpt lat="44.98604" lon="5.46452">
        <ele>1313.6</ele>
        <time>2013-03-27T18:05:25Z</time>
      </trkpt>
      <trkpt lat="44.98507" lon="5.46453">
        <ele>1324.5</ele>
        <time>2013-03-27T18:05:25Z</time>
      </trkpt>
      <trkpt lat="44.98471" lon="5.46483">
        <ele>1331.5</ele>
        <time>2013-03-27T18:05:25Z</time>
      </trkpt>
      <trkpt lat="44.98426" lon="5.46485">
        <ele>1336.6</ele>
        <time>2013-03-27T18:05:25Z</time>
      </trkpt>
      <trkpt lat="44.98375" lon="5.46534">
        <ele>1356.2</ele>
        <time>2013-03-27T18:05:25Z</time>
      </trkpt>
      <trkpt lat="44.98267" lon="5.46481">
        <ele>1353.9</ele>
        <time>2013-03-27T18:05:25Z</time>
      </trkpt>
      <trkpt lat="44.98236" lon="5.4649">
        <ele>1362.2</ele>
        <time>2013-03-27T18:05:25Z</time>
      </trkpt>
      <trkpt lat="44.98374" lon="5.46628">
        <ele>1388.6</ele>
        <time>2013-03-27T18:05:25Z</time>
      </trkpt>
      <trkpt lat="44.98388" lon="5.46674">
        <ele>1402.1</ele>
        <time>2013-03-27T18:05:25Z</time>
      </trkpt>
      <trkpt lat="44.98382" lon="5.46715">
        <ele>1406.8</ele>
        <time>2013-03-27T18:05:25Z</time>
      </trkpt>
      <trkpt lat="44.98356" lon="5.46783">
        <ele>1405.9</ele>
        <time>2013-03-27T18:05:25Z</time>
      </trkpt>
      <trkpt lat="44.98379" lon="5.46828">
        <ele>1406.4</ele>
        <time>2013-03-27T18:05:25Z</time>
      </trkpt>
      <trkpt lat="44.98341" lon="5.46924">
        <ele>1396.6</ele>
        <time>2013-03-27T18:05:25Z</time>
      </trkpt>
      <trkpt lat="44.98334" lon="5.47002">
        <ele>1401</ele>
        <time>2013-03-27T18:05:25Z</time>
      </trkpt>
      <trkpt lat="44.9828" lon="5.47049">
        <ele>1388.6</ele>
        <time>2013-03-27T18:05:25Z</time>
      </trkpt>
      <trkpt lat="44.98254" lon="5.47099">
        <ele>1380.2</ele>
        <time>2013-03-27T18:05:25Z</time>
      </trkpt>
      <trkpt lat="44.98248" lon="5.47164">
        <ele>1378.7</ele>
        <time>2013-03-27T18:05:25Z</time>
      </trkpt>
      <trkpt lat="44.98229" lon="5.47222">
        <ele>1375.5</ele>
        <time>2013-03-27T18:05:25Z</time>
      </trkpt>
      <trkpt lat="44.98197" lon="5.47287">
        <ele>1369.1</ele>
        <time>2013-03-27T18:05:25Z</time>
      </trkpt>
      <trkpt lat="44.98123" lon="5.47327">
        <ele>1357.3</ele>
        <time>2013-03-27T18:05:25Z</time>
      </trkpt>
      <trkpt lat="44.98121" lon="5.47392">
        <ele>1351.8</ele>
        <time>2013-03-27T18:05:25Z</time>
      </trkpt>
      <trkpt lat="44.981" lon="5.47434">
        <ele>1346.4</ele>
        <time>2013-03-27T18:05:25Z</time>
      </trkpt>
      <trkpt lat="44.97957" lon="5.47563">
        <ele>1342.5</ele>
        <time>2013-03-27T18:05:25Z</time>
      </trkpt>
      <trkpt lat="44.97914" lon="5.47574">
        <ele>1340.5</ele>
        <time>2013-03-27T18:05:25Z</time>
      </trkpt>
      <trkpt lat="44.97755" lon="5.47565">
        <ele>1342</ele>
        <time>2013-03-27T18:05:25Z</time>
      </trkpt>
      <trkpt lat="44.97668" lon="5.4761">
        <ele>1337.9</ele>
        <time>2013-03-27T18:05:25Z</time>
      </trkpt>
      <trkpt lat="44.97618" lon="5.47681">
        <ele>1339.5</ele>
        <time>2013-03-27T18:05:25Z</time>
      </trkpt>
      <trkpt lat="44.9744" lon="5.47684">
        <ele>1322.2</ele>
        <time>2013-03-27T18:05:25Z</time>
      </trkpt>
      <trkpt lat="44.97418" lon="5.47661">
        <ele>1317.6</ele>
        <time>2013-03-27T18:05:25Z</time>
      </trkpt>
      <trkpt lat="44.97382" lon="5.47689">
        <ele>1315.7</ele>
        <time>2013-03-27T18:05:25Z</time>
      </trkpt>
      <trkpt lat="44.97221" lon="5.47685">
        <ele>1313</ele>
        <time>2013-03-27T18:05:25Z</time>
      </trkpt>
      <trkpt lat="44.96974" lon="5.47493">
        <ele>1329.2</ele>
        <time>2013-03-27T18:05:25Z</time>
      </trkpt>
      <trkpt lat="44.96806" lon="5.47505">
        <ele>1311.5</ele>
        <time>2013-03-27T18:05:25Z</time>
      </trkpt>
      <trkpt lat="44.96702" lon="5.47523">
        <ele>1315.1</ele>
        <time>2013-03-27T18:05:25Z</time>
      </trkpt>
      <trkpt lat="44.96517" lon="5.47498">
        <ele>1310.7</ele>
        <time>2013-03-27T18:05:25Z</time>
      </trkpt>
      <trkpt lat="44.9644" lon="5.47515">
        <ele>1314</ele>
        <time>2013-03-27T18:05:25Z</time>
      </trkpt>
      <trkpt lat="44.96396" lon="5.47586">
        <ele>1308</ele>
        <time>2013-03-27T18:05:25Z</time>
      </trkpt>
      <trkpt lat="44.963" lon="5.47614">
        <ele>1317.9</ele>
        <time>2013-03-27T18:05:25Z</time>
      </trkpt>
      <trkpt lat="44.96206" lon="5.47606">
        <ele>1329.8</ele>
        <time>2013-03-27T18:05:25Z</time>
      </trkpt>
      <trkpt lat="44.96146" lon="5.47585">
        <ele>1337.8</ele>
        <time>2013-03-27T18:05:25Z</time>
      </trkpt>
      <trkpt lat="44.96068" lon="5.4752">
        <ele>1350.9</ele>
        <time>2013-03-27T18:05:25Z</time>
      </trkpt>
      <trkpt lat="44.9582" lon="5.47578">
        <ele>1355</ele>
        <time>2013-03-27T18:05:25Z</time>
      </trkpt>
      <trkpt lat="44.95726" lon="5.47627">
        <ele>1357.3</ele>
        <time>2013-03-27T18:05:25Z</time>
      </trkpt>
      <trkpt lat="44.9566" lon="5.47645">
        <ele>1363</ele>
        <time>2013-03-27T18:05:25Z</time>
      </trkpt>
      <trkpt lat="44.95577" lon="5.47703">
        <ele>1369.4</ele>
        <time>2013-03-27T18:05:25Z</time>
      </trkpt>
      <trkpt lat="44.95533" lon="5.4769">
        <ele>1372.8</ele>
        <time>2013-03-27T18:05:25Z</time>
      </trkpt>
      <trkpt lat="44.95482" lon="5.47637">
        <ele>1381.9</ele>
        <time>2013-03-27T18:05:25Z</time>
      </trkpt>
      <trkpt lat="44.95352" lon="5.47645">
        <ele>1388.2</ele>
        <time>2013-03-27T18:05:25Z</time>
      </trkpt>
      <trkpt lat="44.95308" lon="5.4763">
        <ele>1393.1</ele>
        <time>2013-03-27T18:05:25Z</time>
      </trkpt>
      <trkpt lat="44.9524" lon="5.47678">
        <ele>1388.5</ele>
        <time>2013-03-27T18:05:25Z</time>
      </trkpt>
      <trkpt lat="44.95196" lon="5.47693">
        <ele>1388.8</ele>
        <time>2013-03-27T18:05:25Z</time>
      </trkpt>
      <trkpt lat="44.95118" lon="5.47641">
        <ele>1394.3</ele>
        <time>2013-03-27T18:05:25Z</time>
      </trkpt>
      <trkpt lat="44.95083" lon="5.47554">
        <ele>1404.6</ele>
        <time>2013-03-27T18:05:25Z</time>
      </trkpt>
      <trkpt lat="44.9503" lon="5.47538">
        <ele>1398.3</ele>
        <time>2013-03-27T18:05:25Z</time>
      </trkpt>
      <trkpt lat="44.94977" lon="5.47503">
        <ele>1397.2</ele>
        <time>2013-03-27T18:05:25Z</time>
      </trkpt>
      <trkpt lat="44.95016" lon="5.4742">
        <ele>1411.9</ele>
        <time>2013-03-27T18:05:25Z</time>
      </trkpt>
      <trkpt lat="44.95007" lon="5.47374">
        <ele>1415.8</ele>
        <time>2013-03-27T18:05:25Z</time>
      </trkpt>
      <trkpt lat="44.95038" lon="5.47304">
        <ele>1434.8</ele>
        <time>2013-03-27T18:05:25Z</time>
      </trkpt>
      <trkpt lat="44.9502" lon="5.47229">
        <ele>1431.4</ele>
        <time>2013-03-27T18:05:25Z</time>
      </trkpt>
      <trkpt lat="44.95059" lon="5.47006">
        <ele>1453.3</ele>
        <time>2013-03-27T18:05:25Z</time>
      </trkpt>
      <trkpt lat="44.9506" lon="5.46895">
        <ele>1440.1</ele>
        <time>2013-03-27T18:05:25Z</time>
      </trkpt>
      <trkpt lat="44.95137" lon="5.46645">
        <ele>1398.2</ele>
        <time>2013-03-27T18:05:25Z</time>
      </trkpt>
      <trkpt lat="44.95148" lon="5.46533">
        <ele>1384.3</ele>
        <time>2013-03-27T18:05:25Z</time>
      </trkpt>
      <trkpt lat="44.95143" lon="5.46257">
        <ele>1310.8</ele>
        <time>2013-03-27T18:05:25Z</time>
      </trkpt>
      <trkpt lat="44.9512" lon="5.46216">
        <ele>1308.5</ele>
        <time>2013-03-27T18:05:25Z</time>
      </trkpt>
      <trkpt lat="44.95072" lon="5.46207">
        <ele>1312.2</ele>
        <time>2013-03-27T18:05:25Z</time>
      </trkpt>
      <trkpt lat="44.95039" lon="5.46225">
        <ele>1315.2</ele>
        <time>2013-03-27T18:05:25Z</time>
      </trkpt>
      <trkpt lat="44.9497" lon="5.46202">
        <ele>1315.7</ele>
        <time>2013-03-27T18:05:25Z</time>
      </trkpt>
      <trkpt lat="44.9492" lon="5.46116">
        <ele>1317.3</ele>
        <time>2013-03-27T18:05:25Z</time>
      </trkpt>
      <trkpt lat="44.94895" lon="5.46126">
        <ele>1316.9</ele>
        <time>2013-03-27T18:05:25Z</time>
      </trkpt>
      <trkpt lat="44.94802" lon="5.46257">
        <ele>1320.8</ele>
        <time>2013-03-27T18:05:25Z</time>
      </trkpt>
      <trkpt lat="44.94781" lon="5.463">
        <ele>1325.1</ele>
        <time>2013-03-27T18:05:25Z</time>
      </trkpt>
      <trkpt lat="44.94749" lon="5.463">
        <ele>1323.5</ele>
        <time>2013-03-27T18:05:25Z</time>
      </trkpt>
      <trkpt lat="44.94689" lon="5.46327">
        <ele>1321.6</ele>
        <time>2013-03-27T18:05:25Z</time>
      </trkpt>
      <trkpt lat="44.94663" lon="5.46315">
        <ele>1320.3</ele>
        <time>2013-03-27T18:05:25Z</time>
      </trkpt>
      <trkpt lat="44.9465" lon="5.46258">
        <ele>1321.5</ele>
        <time>2013-03-27T18:05:25Z</time>
      </trkpt>
      <trkpt lat="44.94676" lon="5.46198">
        <ele>1325</ele>
        <time>2013-03-27T18:05:25Z</time>
      </trkpt>
      <trkpt lat="44.94661" lon="5.46059">
        <ele>1329</ele>
        <time>2013-03-27T18:05:25Z</time>
      </trkpt>
      <trkpt lat="44.94631" lon="5.46003">
        <ele>1333.7</ele>
        <time>2013-03-27T18:05:25Z</time>
      </trkpt>
      <trkpt lat="44.94615" lon="5.45839">
        <ele>1348.7</ele>
        <time>2013-03-27T18:05:25Z</time>
      </trkpt>
      <trkpt lat="44.94554" lon="5.45768">
        <ele>1353</ele>
        <time>2013-03-27T18:05:25Z</time>
      </trkpt>
      <trkpt lat="44.94512" lon="5.45831">
        <ele>1349.9</ele>
        <time>2013-03-27T18:05:25Z</time>
      </trkpt>
      <trkpt lat="44.94441" lon="5.45879">
        <ele>1347.7</ele>
        <time>2013-03-27T18:05:25Z</time>
      </trkpt>
      <trkpt lat="44.94368" lon="5.45855">
        <ele>1349.4</ele>
        <time>2013-03-27T18:05:25Z</time>
      </trkpt>
      <trkpt lat="44.94309" lon="5.45867">
        <ele>1347</ele>
        <time>2013-03-27T18:05:25Z</time>
      </trkpt>
      <trkpt lat="44.94236" lon="5.45826">
        <ele>1350.7</ele>
        <time>2013-03-27T18:05:25Z</time>
      </trkpt>
      <trkpt lat="44.94137" lon="5.4583">
        <ele>1345.2</ele>
        <time>2013-03-27T18:05:25Z</time>
      </trkpt>
      <trkpt lat="44.93973" lon="5.45866">
        <ele>1345.8</ele>
        <time>2013-03-27T18:05:25Z</time>
      </trkpt>
      <trkpt lat="44.93923" lon="5.45833">
        <ele>1352.8</ele>
        <time>2013-03-27T18:05:25Z</time>
      </trkpt>
      <trkpt lat="44.93903" lon="5.4583">
        <ele>1354.7</ele>
        <time>2013-03-27T18:05:25Z</time>
      </trkpt>
      <trkpt lat="44.93887" lon="5.458">
        <ele>1360.3</ele>
        <time>2013-03-27T18:05:25Z</time>
      </trkpt>
      <trkpt lat="44.93856" lon="5.45792">
        <ele>1363.5</ele>
        <time>2013-03-27T18:05:25Z</time>
      </trkpt>
      <trkpt lat="44.93848" lon="5.45742">
        <ele>1371.3</ele>
        <time>2013-03-27T18:05:25Z</time>
      </trkpt>
      <trkpt lat="44.93774" lon="5.45762">
        <ele>1373.2</ele>
        <time>2013-03-27T18:05:25Z</time>
      </trkpt>
      <trkpt lat="44.93732" lon="5.45883">
        <ele>1366.9</ele>
        <time>2013-03-27T18:05:25Z</time>
      </trkpt>
      <trkpt lat="44.93698" lon="5.45879">
        <ele>1366.4</ele>
        <time>2013-03-27T18:05:25Z</time>
      </trkpt>
      <trkpt lat="44.93654" lon="5.45803">
        <ele>1369</ele>
        <time>2013-03-27T18:05:25Z</time>
      </trkpt>
      <trkpt lat="44.9363" lon="5.45678">
        <ele>1374.7</ele>
        <time>2013-03-27T18:05:25Z</time>
      </trkpt>
      <trkpt lat="44.93595" lon="5.4565">
        <ele>1370.7</ele>
        <time>2013-03-27T18:05:25Z</time>
      </trkpt>
      <trkpt lat="44.9352" lon="5.45626">
        <ele>1364.2</ele>
        <time>2013-03-27T18:05:25Z</time>
      </trkpt>
      <trkpt lat="44.93452" lon="5.45683">
        <ele>1356.3</ele>
        <time>2013-03-27T18:05:25Z</time>
      </trkpt>
      <trkpt lat="44.93384" lon="5.45699">
        <ele>1357.2</ele>
        <time>2013-03-27T18:05:25Z</time>
      </trkpt>
      <trkpt lat="44.93349" lon="5.45664">
        <ele>1360.6</ele>
        <time>2013-03-27T18:05:25Z</time>
      </trkpt>
      <trkpt lat="44.93348" lon="5.4561">
        <ele>1363.8</ele>
        <time>2013-03-27T18:05:25Z</time>
      </trkpt>
      <trkpt lat="44.93399" lon="5.45448">
        <ele>1360.2</ele>
        <time>2013-03-27T18:05:25Z</time>
      </trkpt>
      <trkpt lat="44.93385" lon="5.45386">
        <ele>1356.6</ele>
        <time>2013-03-27T18:05:25Z</time>
      </trkpt>
      <trkpt lat="44.93389" lon="5.45302">
        <ele>1353.9</ele>
        <time>2013-03-27T18:05:25Z</time>
      </trkpt>
      <trkpt lat="44.9337" lon="5.45303">
        <ele>1357.3</ele>
        <time>2013-03-27T18:05:25Z</time>
      </trkpt>
      <trkpt lat="44.93341" lon="5.45525">
        <ele>1362.6</ele>
        <time>2013-03-27T18:05:25Z</time>
      </trkpt>
      <trkpt lat="44.93299" lon="5.45592">
        <ele>1369.4</ele>
        <time>2013-03-27T18:05:25Z</time>
      </trkpt>
      <trkpt lat="44.93245" lon="5.45598">
        <ele>1376.6</ele>
        <time>2013-03-27T18:05:25Z</time>
      </trkpt>
      <trkpt lat="44.93204" lon="5.45637">
        <ele>1380.1</ele>
        <time>2013-03-27T18:05:25Z</time>
      </trkpt>
      <trkpt lat="44.93165" lon="5.45652">
        <ele>1384.7</ele>
        <time>2013-03-27T18:05:25Z</time>
      </trkpt>
      <trkpt lat="44.93122" lon="5.457">
        <ele>1385</ele>
        <time>2013-03-27T18:05:25Z</time>
      </trkpt>
      <trkpt lat="44.9308" lon="5.4576">
        <ele>1385.1</ele>
        <time>2013-03-27T18:05:25Z</time>
      </trkpt>
      <trkpt lat="44.93035" lon="5.4581">
        <ele>1389.2</ele>
        <time>2013-03-27T18:05:25Z</time>
      </trkpt>
      <trkpt lat="44.92989" lon="5.45816">
        <ele>1395</ele>
        <time>2013-03-27T18:05:25Z</time>
      </trkpt>
      <trkpt lat="44.9299" lon="5.45883">
        <ele>1395.8</ele>
        <time>2013-03-27T18:05:25Z</time>
      </trkpt>
      <trkpt lat="44.93005" lon="5.45912">
        <ele>1395.1</ele>
        <time>2013-03-27T18:05:25Z</time>
      </trkpt>
      <trkpt lat="44.93004" lon="5.45943">
        <ele>1395.8</ele>
        <time>2013-03-27T18:05:25Z</time>
      </trkpt>
      <trkpt lat="44.92952" lon="5.45999">
        <ele>1401.1</ele>
        <time>2013-03-27T18:05:25Z</time>
      </trkpt>
      <trkpt lat="44.92972" lon="5.46156">
        <ele>1402.7</ele>
        <time>2013-03-27T18:05:25Z</time>
      </trkpt>
      <trkpt lat="44.92927" lon="5.46169">
        <ele>1408</ele>
        <time>2013-03-27T18:05:25Z</time>
      </trkpt>
      <trkpt lat="44.92915" lon="5.46253">
        <ele>1412.1</ele>
        <time>2013-03-27T18:05:25Z</time>
      </trkpt>
      <trkpt lat="44.92867" lon="5.46311">
        <ele>1415.3</ele>
        <time>2013-03-27T18:05:25Z</time>
      </trkpt>
      <trkpt lat="44.92867" lon="5.46311">
        <ele>1415.3</ele>
        <time>2013-03-27T18:05:25Z</time>
      </trkpt>
      <trkpt lat="44.92853" lon="5.4628">
        <ele>1414.6</ele>
        <time>2013-03-27T18:05:25Z</time>
      </trkpt>
      <trkpt lat="44.92884" lon="5.46108">
        <ele>1409.7</ele>
        <time>2013-03-27T18:05:25Z</time>
      </trkpt>
      <trkpt lat="44.92871" lon="5.46055">
        <ele>1410.4</ele>
        <time>2013-03-27T18:05:25Z</time>
      </trkpt>
      <trkpt lat="44.92843" lon="5.46073">
        <ele>1413.3</ele>
        <time>2013-03-27T18:05:25Z</time>
      </trkpt>
      <trkpt lat="44.92838" lon="5.46103">
        <ele>1413.6</ele>
        <time>2013-03-27T18:05:25Z</time>
      </trkpt>
      <trkpt lat="44.92805" lon="5.46106">
        <ele>1416.8</ele>
        <time>2013-03-27T18:05:25Z</time>
      </trkpt>
      <trkpt lat="44.92787" lon="5.46213">
        <ele>1417.4</ele>
        <time>2013-03-27T18:05:25Z</time>
      </trkpt>
      <trkpt lat="44.92755" lon="5.46246">
        <ele>1419.6</ele>
        <time>2013-03-27T18:05:25Z</time>
      </trkpt>
      <trkpt lat="44.9273" lon="5.46219">
        <ele>1419.9</ele>
        <time>2013-03-27T18:05:25Z</time>
      </trkpt>
      <trkpt lat="44.92716" lon="5.46157">
        <ele>1420</ele>
        <time>2013-03-27T18:05:25Z</time>
      </trkpt>
      <trkpt lat="44.92687" lon="5.46127">
        <ele>1420.7</ele>
        <time>2013-03-27T18:05:25Z</time>
      </trkpt>
      <trkpt lat="44.92669" lon="5.46085">
        <ele>1422</ele>
        <time>2013-03-27T18:05:25Z</time>
      </trkpt>
      <trkpt lat="44.92637" lon="5.46064">
        <ele>1417.7</ele>
        <time>2013-03-27T18:05:25Z</time>
      </trkpt>
      <trkpt lat="44.9264" lon="5.46159">
        <ele>1416.1</ele>
        <time>2013-03-27T18:05:25Z</time>
      </trkpt>
      <trkpt lat="44.92615" lon="5.46184">
        <ele>1413.5</ele>
        <time>2013-03-27T18:05:25Z</time>
      </trkpt>
      <trkpt lat="44.92577" lon="5.46252">
        <ele>1413.4</ele>
        <time>2013-03-27T18:05:25Z</time>
      </trkpt>
      <trkpt lat="44.9256" lon="5.46216">
        <ele>1409</ele>
        <time>2013-03-27T18:05:25Z</time>
      </trkpt>
      <trkpt lat="44.92532" lon="5.4621">
        <ele>1405.2</ele>
        <time>2013-03-27T18:05:25Z</time>
      </trkpt>
      <trkpt lat="44.92504" lon="5.46115">
        <ele>1398</ele>
        <time>2013-03-27T18:05:25Z</time>
      </trkpt>
      <trkpt lat="44.92469" lon="5.46109">
        <ele>1394.8</ele>
        <time>2013-03-27T18:05:25Z</time>
      </trkpt>
      <trkpt lat="44.9244" lon="5.46088">
        <ele>1390.9</ele>
        <time>2013-03-27T18:05:25Z</time>
      </trkpt>
      <trkpt lat="44.92403" lon="5.46107">
        <ele>1389.4</ele>
        <time>2013-03-27T18:05:25Z</time>
      </trkpt>
      <trkpt lat="44.92358" lon="5.46094">
        <ele>1383.2</ele>
        <time>2013-03-27T18:05:25Z</time>
      </trkpt>
      <trkpt lat="44.92317" lon="5.461">
        <ele>1382</ele>
        <time>2013-03-27T18:05:25Z</time>
      </trkpt>
      <trkpt lat="44.92279" lon="5.46066">
        <ele>1373.3</ele>
        <time>2013-03-27T18:05:25Z</time>
      </trkpt>
      <trkpt lat="44.92158" lon="5.46128">
        <ele>1389.2</ele>
        <time>2013-03-27T18:05:25Z</time>
      </trkpt>
      <trkpt lat="44.9213" lon="5.46107">
        <ele>1384</ele>
        <time>2013-03-27T18:05:25Z</time>
      </trkpt>
      <trkpt lat="44.92053" lon="5.46311">
        <ele>1393.9</ele>
        <time>2013-03-27T18:05:25Z</time>
      </trkpt>
      <trkpt lat="44.92013" lon="5.46305">
        <ele>1389</ele>
        <time>2013-03-27T18:05:25Z</time>
      </trkpt>
      <trkpt lat="44.91992" lon="5.46299">
        <ele>1386.9</ele>
        <time>2013-03-27T18:05:25Z</time>
      </trkpt>
      <trkpt lat="44.91948" lon="5.46321">
        <ele>1384.5</ele>
        <time>2013-03-27T18:05:25Z</time>
      </trkpt>
      <trkpt lat="44.91909" lon="5.46327">
        <ele>1381.6</ele>
        <time>2013-03-27T18:05:25Z</time>
      </trkpt>
      <trkpt lat="44.91829" lon="5.46386">
        <ele>1381.7</ele>
        <time>2013-03-27T18:05:25Z</time>
      </trkpt>
      <trkpt lat="44.91801" lon="5.46408">
        <ele>1382.2</ele>
        <time>2013-03-27T18:05:25Z</time>
      </trkpt>
      <trkpt lat="44.91746" lon="5.46494">
        <ele>1388</ele>
        <time>2013-03-27T18:05:25Z</time>
      </trkpt>
      <trkpt lat="44.91718" lon="5.46488">
        <ele>1385.2</ele>
        <time>2013-03-27T18:05:25Z</time>
      </trkpt>
      <trkpt lat="44.91718" lon="5.46451">
        <ele>1381.6</ele>
        <time>2013-03-27T18:05:25Z</time>
      </trkpt>
      <trkpt lat="44.91718" lon="5.46451">
        <ele>1381.6</ele>
        <time>2013-03-27T18:05:25Z</time>
      </trkpt>
      <trkpt lat="44.91723" lon="5.46426">
        <ele>1379.5</ele>
        <time>2013-03-27T18:05:25Z</time>
      </trkpt>
      <trkpt lat="44.91702" lon="5.46355">
        <ele>1374.3</ele>
        <time>2013-03-27T18:05:25Z</time>
      </trkpt>
      <trkpt lat="44.91608" lon="5.46469">
        <ele>1380.2</ele>
        <time>2013-03-27T18:05:25Z</time>
      </trkpt>
      <trkpt lat="44.91533" lon="5.46491">
        <ele>1378.2</ele>
        <time>2013-03-27T18:05:25Z</time>
      </trkpt>
      <trkpt lat="44.91491" lon="5.46458">
        <ele>1380.2</ele>
        <time>2013-03-27T18:05:25Z</time>
      </trkpt>
      <trkpt lat="44.91463" lon="5.46474">
        <ele>1379.2</ele>
        <time>2013-03-27T18:05:25Z</time>
      </trkpt>
      <trkpt lat="44.91423" lon="5.4658">
        <ele>1367.6</ele>
        <time>2013-03-27T18:05:25Z</time>
      </trkpt>
      <trkpt lat="44.91396" lon="5.46592">
        <ele>1369.4</ele>
        <time>2013-03-27T18:05:25Z</time>
      </trkpt>
      <trkpt lat="44.91336" lon="5.4658">
        <ele>1379</ele>
        <time>2013-03-27T18:05:25Z</time>
      </trkpt>
      <trkpt lat="44.91278" lon="5.46581">
        <ele>1379.4</ele>
        <time>2013-03-27T18:05:25Z</time>
      </trkpt>
      <trkpt lat="44.9124" lon="5.46542">
        <ele>1386.3</ele>
        <time>2013-03-27T18:05:25Z</time>
      </trkpt>
      <trkpt lat="44.91196" lon="5.46561">
        <ele>1384.5</ele>
        <time>2013-03-27T18:05:25Z</time>
      </trkpt>
      <trkpt lat="44.9117" lon="5.46634">
        <ele>1378.3</ele>
        <time>2013-03-27T18:05:25Z</time>
      </trkpt>
      <trkpt lat="44.91108" lon="5.46639">
        <ele>1382.8</ele>
        <time>2013-03-27T18:05:25Z</time>
      </trkpt>
      <trkpt lat="44.91048" lon="5.46592">
        <ele>1390.1</ele>
        <time>2013-03-27T18:05:25Z</time>
      </trkpt>
      <trkpt lat="44.91036" lon="5.46557">
        <ele>1395.5</ele>
        <time>2013-03-27T18:05:25Z</time>
      </trkpt>
      <trkpt lat="44.9098" lon="5.46575">
        <ele>1393.4</ele>
        <time>2013-03-27T18:05:25Z</time>
      </trkpt>
      <trkpt lat="44.90854" lon="5.46607">
        <ele>1397.4</ele>
        <time>2013-03-27T18:05:25Z</time>
      </trkpt>
      <trkpt lat="44.90748" lon="5.46664">
        <ele>1406</ele>
        <time>2013-03-27T18:05:25Z</time>
      </trkpt>
      <trkpt lat="44.9068" lon="5.466">
        <ele>1402.3</ele>
        <time>2013-03-27T18:05:25Z</time>
      </trkpt>
      <trkpt lat="44.90623" lon="5.46623">
        <ele>1414</ele>
        <time>2013-03-27T18:05:25Z</time>
      </trkpt>
      <trkpt lat="44.90598" lon="5.46578">
        <ele>1408.2</ele>
        <time>2013-03-27T18:05:25Z</time>
      </trkpt>
      <trkpt lat="44.90555" lon="5.46543">
        <ele>1412.1</ele>
        <time>2013-03-27T18:05:25Z</time>
      </trkpt>
      <trkpt lat="44.905" lon="5.46553">
        <ele>1419.5</ele>
        <time>2013-03-27T18:05:25Z</time>
      </trkpt>
      <trkpt lat="44.90458" lon="5.46542">
        <ele>1421</ele>
        <time>2013-03-27T18:05:25Z</time>
      </trkpt>
      <trkpt lat="44.90413" lon="5.46555">
        <ele>1426.6</ele>
        <time>2013-03-27T18:05:25Z</time>
      </trkpt>
      <trkpt lat="44.90366" lon="5.46526">
        <ele>1421.6</ele>
        <time>2013-03-27T18:05:25Z</time>
      </trkpt>
      <trkpt lat="44.90337" lon="5.46516">
        <ele>1419.9</ele>
        <time>2013-03-27T18:05:25Z</time>
      </trkpt>
      <trkpt lat="44.90286" lon="5.46541">
        <ele>1431.6</ele>
        <time>2013-03-27T18:05:25Z</time>
      </trkpt>
      <trkpt lat="44.90205" lon="5.46519">
        <ele>1432.5</ele>
        <time>2013-03-27T18:05:25Z</time>
      </trkpt>
      <trkpt lat="44.90148" lon="5.46555">
        <ele>1447.2</ele>
        <time>2013-03-27T18:05:25Z</time>
      </trkpt>
      <trkpt lat="44.90085" lon="5.46547">
        <ele>1450.1</ele>
        <time>2013-03-27T18:05:25Z</time>
      </trkpt>
      <trkpt lat="44.90076" lon="5.46584">
        <ele>1458.3</ele>
        <time>2013-03-27T18:05:25Z</time>
      </trkpt>
      <trkpt lat="44.90055" lon="5.46619">
        <ele>1462.6</ele>
        <time>2013-03-27T18:05:25Z</time>
      </trkpt>
      <trkpt lat="44.90032" lon="5.46744">
        <ele>1474.9</ele>
        <time>2013-03-27T18:05:25Z</time>
      </trkpt>
      <trkpt lat="44.90014" lon="5.46791">
        <ele>1471.9</ele>
        <time>2013-03-27T18:05:25Z</time>
      </trkpt>
      <trkpt lat="44.89926" lon="5.46769">
        <ele>1467</ele>
        <time>2013-03-27T18:05:25Z</time>
      </trkpt>
      <trkpt lat="44.89769" lon="5.46777">
        <ele>1495.5</ele>
        <time>2013-03-27T18:05:25Z</time>
      </trkpt>
      <trkpt lat="44.89714" lon="5.46792">
        <ele>1506.5</ele>
        <time>2013-03-27T18:05:25Z</time>
      </trkpt>
      <trkpt lat="44.89665" lon="5.46724">
        <ele>1520.6</ele>
        <time>2013-03-27T18:05:25Z</time>
      </trkpt>
      <trkpt lat="44.89627" lon="5.46763">
        <ele>1522.1</ele>
        <time>2013-03-27T18:05:25Z</time>
      </trkpt>
      <trkpt lat="44.89594" lon="5.46835">
        <ele>1521.9</ele>
        <time>2013-03-27T18:05:25Z</time>
      </trkpt>
      <trkpt lat="44.89504" lon="5.46873">
        <ele>1525.6</ele>
        <time>2013-03-27T18:05:25Z</time>
      </trkpt>
      <trkpt lat="44.8945" lon="5.46922">
        <ele>1523.7</ele>
        <time>2013-03-27T18:05:25Z</time>
      </trkpt>
      <trkpt lat="44.89409" lon="5.46909">
        <ele>1528.4</ele>
        <time>2013-03-27T18:05:25Z</time>
      </trkpt>
      <trkpt lat="44.89372" lon="5.46998">
        <ele>1522.2</ele>
        <time>2013-03-27T18:05:25Z</time>
      </trkpt>
      <trkpt lat="44.89346" lon="5.46962">
        <ele>1525.4</ele>
        <time>2013-03-27T18:05:25Z</time>
      </trkpt>
      <trkpt lat="44.89347" lon="5.47008">
        <ele>1522.5</ele>
        <time>2013-03-27T18:05:25Z</time>
      </trkpt>
      <trkpt lat="44.89312" lon="5.47019">
        <ele>1518.9</ele>
        <time>2013-03-27T18:05:25Z</time>
      </trkpt>
      <trkpt lat="44.89292" lon="5.47072">
        <ele>1512.6</ele>
        <time>2013-03-27T18:05:25Z</time>
      </trkpt>
      <trkpt lat="44.8925" lon="5.47085">
        <ele>1502.9</ele>
        <time>2013-03-27T18:05:25Z</time>
      </trkpt>
      <trkpt lat="44.89199" lon="5.4708">
        <ele>1495.6</ele>
        <time>2013-03-27T18:05:25Z</time>
      </trkpt>
      <trkpt lat="44.89156" lon="5.4706">
        <ele>1492</ele>
        <time>2013-03-27T18:05:25Z</time>
      </trkpt>
      <trkpt lat="44.89147" lon="5.47005">
        <ele>1499</ele>
        <time>2013-03-27T18:05:25Z</time>
      </trkpt>
      <trkpt lat="44.8912" lon="5.47">
        <ele>1494</ele>
        <time>2013-03-27T18:05:25Z</time>
      </trkpt>
      <trkpt lat="44.89119" lon="5.47088">
        <ele>1480.7</ele>
        <time>2013-03-27T18:05:25Z</time>
      </trkpt>
      <trkpt lat="44.891" lon="5.4714">
        <ele>1471.5</ele>
        <time>2013-03-27T18:05:25Z</time>
      </trkpt>
      <trkpt lat="44.89076" lon="5.47134">
        <ele>1469.4</ele>
        <time>2013-03-27T18:05:25Z</time>
      </trkpt>
      <trkpt lat="44.89063" lon="5.47192">
        <ele>1464.9</ele>
        <time>2013-03-27T18:05:25Z</time>
      </trkpt>
      <trkpt lat="44.89044" lon="5.4723">
        <ele>1463.5</ele>
        <time>2013-03-27T18:05:25Z</time>
      </trkpt>
      <trkpt lat="44.89045" lon="5.47306">
        <ele>1462.4</ele>
        <time>2013-03-27T18:05:25Z</time>
      </trkpt>
      <trkpt lat="44.89033" lon="5.47372">
        <ele>1463.1</ele>
        <time>2013-03-27T18:05:25Z</time>
      </trkpt>
      <trkpt lat="44.8891" lon="5.47444">
        <ele>1456.9</ele>
        <time>2013-03-27T18:05:25Z</time>
      </trkpt>
      <trkpt lat="44.88881" lon="5.47431">
        <ele>1455.5</ele>
        <time>2013-03-27T18:05:25Z</time>
      </trkpt>
      <trkpt lat="44.88851" lon="5.47343">
        <ele>1462.6</ele>
        <time>2013-03-27T18:05:25Z</time>
      </trkpt>
      <trkpt lat="44.88818" lon="5.47315">
        <ele>1464.8</ele>
        <time>2013-03-27T18:05:25Z</time>
      </trkpt>
      <trkpt lat="44.888" lon="5.47275">
        <ele>1466.8</ele>
        <time>2013-03-27T18:05:25Z</time>
      </trkpt>
      <trkpt lat="44.88752" lon="5.47196">
        <ele>1470.1</ele>
        <time>2013-03-27T18:05:25Z</time>
      </trkpt>
      <trkpt lat="44.88711" lon="5.47096">
        <ele>1468.6</ele>
        <time>2013-03-27T18:05:25Z</time>
      </trkpt>
      <trkpt lat="44.88679" lon="5.4699">
        <ele>1463.6</ele>
        <time>2013-03-27T18:05:25Z</time>
      </trkpt>
      <trkpt lat="44.88641" lon="5.46849">
        <ele>1470.9</ele>
        <time>2013-03-27T18:05:25Z</time>
      </trkpt>
      <trkpt lat="44.88601" lon="5.46858">
        <ele>1467.4</ele>
        <time>2013-03-27T18:05:25Z</time>
      </trkpt>
      <trkpt lat="44.88562" lon="5.46986">
        <ele>1455.1</ele>
        <time>2013-03-27T18:05:25Z</time>
      </trkpt>
      <trkpt lat="44.88532" lon="5.4701">
        <ele>1455.5</ele>
        <time>2013-03-27T18:05:25Z</time>
      </trkpt>
      <trkpt lat="44.88508" lon="5.46966">
        <ele>1458</ele>
        <time>2013-03-27T18:05:25Z</time>
      </trkpt>
      <trkpt lat="44.8847" lon="5.46911">
        <ele>1460.6</ele>
        <time>2013-03-27T18:05:25Z</time>
      </trkpt>
      <trkpt lat="44.88434" lon="5.46821">
        <ele>1465.1</ele>
        <time>2013-03-27T18:05:25Z</time>
      </trkpt>
      <trkpt lat="44.88342" lon="5.46792">
        <ele>1463.9</ele>
        <time>2013-03-27T18:05:25Z</time>
      </trkpt>
      <trkpt lat="44.88325" lon="5.46745">
        <ele>1468.6</ele>
        <time>2013-03-27T18:05:25Z</time>
      </trkpt>
      <trkpt lat="44.88269" lon="5.46759">
        <ele>1464.7</ele>
        <time>2013-03-27T18:05:25Z</time>
      </trkpt>
      <trkpt lat="44.88201" lon="5.46818">
        <ele>1457.1</ele>
        <time>2013-03-27T18:05:25Z</time>
      </trkpt>
      <trkpt lat="44.88175" lon="5.4683">
        <ele>1456.2</ele>
        <time>2013-03-27T18:05:25Z</time>
      </trkpt>
      <trkpt lat="44.88202" lon="5.46738">
        <ele>1463.8</ele>
        <time>2013-03-27T18:05:25Z</time>
      </trkpt>
      <trkpt lat="44.88201" lon="5.46641">
        <ele>1475.5</ele>
        <time>2013-03-27T18:05:25Z</time>
      </trkpt>
      <trkpt lat="44.88202" lon="5.46558">
        <ele>1478.2</ele>
        <time>2013-03-27T18:05:25Z</time>
      </trkpt>
      <trkpt lat="44.8824" lon="5.46439">
        <ele>1483.5</ele>
        <time>2013-03-27T18:05:25Z</time>
      </trkpt>
      <trkpt lat="44.88271" lon="5.46269">
        <ele>1469.9</ele>
        <time>2013-03-27T18:05:25Z</time>
      </trkpt>
      <trkpt lat="44.88274" lon="5.46165">
        <ele>1455.3</ele>
        <time>2013-03-27T18:05:25Z</time>
      </trkpt>
      <trkpt lat="44.88228" lon="5.46018">
        <ele>1438.7</ele>
        <time>2013-03-27T18:05:25Z</time>
      </trkpt>
      <trkpt lat="44.88172" lon="5.45839">
        <ele>1440.4</ele>
        <time>2013-03-27T18:05:25Z</time>
      </trkpt>
      <trkpt lat="44.88121" lon="5.45764">
        <ele>1435.6</ele>
        <time>2013-03-27T18:05:25Z</time>
      </trkpt>
      <trkpt lat="44.88091" lon="5.45628">
        <ele>1442.1</ele>
        <time>2013-03-27T18:05:25Z</time>
      </trkpt>
      <trkpt lat="44.88076" lon="5.45571">
        <ele>1442.4</ele>
        <time>2013-03-27T18:05:25Z</time>
      </trkpt>
      <trkpt lat="44.88046" lon="5.45491">
        <ele>1433.3</ele>
        <time>2013-03-27T18:05:25Z</time>
      </trkpt>
      <trkpt lat="44.88046" lon="5.45491">
        <ele>1433.3</ele>
        <time>2013-03-27T18:05:25Z</time>
      </trkpt>
      <trkpt lat="44.87981" lon="5.4554">
        <ele>1413.1</ele>
        <time>2013-03-27T18:05:25Z</time>
      </trkpt>
      <trkpt lat="44.87933" lon="5.45355">
        <ele>1397.1</ele>
        <time>2013-03-27T18:05:25Z</time>
      </trkpt>
      <trkpt lat="44.87972" lon="5.45209">
        <ele>1399.5</ele>
        <time>2013-03-27T18:05:25Z</time>
      </trkpt>
      <trkpt lat="44.87988" lon="5.45078">
        <ele>1389.9</ele>
        <time>2013-03-27T18:05:25Z</time>
      </trkpt>
      <trkpt lat="44.88084" lon="5.4491">
        <ele>1384.5</ele>
        <time>2013-03-27T18:05:25Z</time>
      </trkpt>
      <trkpt lat="44.88101" lon="5.44805">
        <ele>1379</ele>
        <time>2013-03-27T18:05:25Z</time>
      </trkpt>
      <trkpt lat="44.88129" lon="5.44633">
        <ele>1376.5</ele>
        <time>2013-03-27T18:05:25Z</time>
      </trkpt>
      <trkpt lat="44.88163" lon="5.44409">
        <ele>1379.2</ele>
        <time>2013-03-27T18:05:25Z</time>
      </trkpt>
    </trkseg>
  </trk>
</gpx>